{"data":{"norad_id":68338,"intl_designator":"2026-059T","name":"STARLINK-36254","alt_names":[],"object_type":"PAYLOAD","status":"ACTIVE","operator":null,"country":"US","launch_date":"2026-03-22","launch_site_code":"AFETR","launch_vehicle":null,"mission":null,"orbit_class":"UNKNOWN","rcs_meters":null,"size_class":null,"mass_kg":null,"dimensions":null,"purposes":["comms"],"wikipedia_slug":null,"has_3d_model":false,"image_url":null,"decayed_at":null,"tle_current":{"epoch":"2026-05-25T04:00:03.998880Z","epoch_age_seconds":64157,"freshness":"FRESH","line1":"1 68338U 26059T   26145.16671295 -.00008598  00000+0 -23588-3 0  9995","line2":"2 68338  53.1596 348.6242 0001262  97.9554   2.0043 15.35397808  5911","mean_motion":15.35397808,"eccentricity":0.0001262,"inclination_deg":53.1596,"raan_deg":348.6242,"arg_perigee_deg":97.9554,"mean_anomaly_deg":2.0043,"bstar":-0.00023588,"rev_number":591,"period_min":93.786769298292,"perigee_km":458.876210794,"apogee_km":460.60209073446,"semimajor_km":6837.8761507642,"source":"CELESTRAK","updated_at":"2026-05-25T13:38:21.925195Z"}}}